Tiempo cada hora Murakhivka

Hoy, 25 Octubre, Domingo

Tiempo Temperatura Precipitaciones Viento Presión Humedad
00:00 +16°C° 0 mm 2 mps 756 mmHg 55%
01:00 +16°C° 0 mm 2 mps 756 mmHg 56%
02:00 +16°C° 0 mm 2 mps 757 mmHg 58%
03:00 +15°C° 0 mm 2 mps 757 mmHg 58%
04:00 +15°C° 0 mm 2 mps 757 mmHg 59%
05:00 +15°C° 0 mm 2 mps 757 mmHg 60%
06:00 +15°C° 0 mm 2 mps 757 mmHg 62%
07:00 +14°C° 0 mm 3 mps 757 mmHg 64%
08:00 +16°C° 0 mm 3 mps 758 mmHg 66%
09:00 +17°C° 0 mm 3 mps 758 mmHg 63%
10:00 +18°C° 0 mm 3 mps 758 mmHg 60%
11:00 +19°C° 0 mm 3 mps 758 mmHg 56%
12:00 +19°C° 0 mm 3 mps 758 mmHg 55%
13:00 +20°C° 0 mm 3 mps 758 mmHg 54%
14:00 +20°C° 0 mm 3 mps 758 mmHg 54%
15:00 +19°C° 0 mm 3 mps 758 mmHg 58%
16:00 +18°C° 0 mm 3 mps 758 mmHg 62%
17:00 +17°C° 0 mm 3 mps 757 mmHg 67%
18:00 +17°C° 0 mm 3 mps 758 mmHg 68%
19:00 +16°C° 0 mm 3 mps 758 mmHg 70%
20:00 +15°C° 0 mm 4 mps 758 mmHg 71%
21:00 +15°C° 0 mm 4 mps 758 mmHg 71%
22:00 +15°C° 0 mm 4 mps 758 mmHg 72%
23:00 +15°C° 0 mm 4 mps 758 mmHg 72%

Mañana, 26 Octubre, Lunes

Tiempo Temperatura Precipitaciones Viento Presión Humedad
00:00 +15°C° 0 mm 4 mps 758 mmHg 73%
01:00 +14°C° 0 mm 4 mps 758 mmHg 74%
02:00 +14°C° 0 mm 4 mps 758 mmHg 75%
03:00 +14°C° 0 mm 4 mps 758 mmHg 76%
04:00 +14°C° 0 mm 5 mps 758 mmHg 76%
05:00 +14°C° 0 mm 5 mps 758 mmHg 77%
06:00 +14°C° 0 mm 5 mps 758 mmHg 75%
07:00 +14°C° 0 mm 6 mps 758 mmHg 72%
08:00 +15°C° 0 mm 6 mps 758 mmHg 70%
09:00 +16°C° 0 mm 6 mps 758 mmHg 65%
10:00 +17°C° 0 mm 7 mps 758 mmHg 61%
11:00 +18°C° 0 mm 7 mps 758 mmHg 56%
12:00 +18°C° 0 mm 7 mps 757 mmHg 55%
13:00 +18°C° 0 mm 7 mps 757 mmHg 54%
14:00 +20°C° 0 mm 7 mps 757 mmHg 53%
15:00 +19°C° 0 mm 6 mps 757 mmHg 56%
16:00 +17°C° 0 mm 6 mps 757 mmHg 59%
17:00 +16°C° 0 mm 5 mps 757 mmHg 62%
18:00 +16°C° 0 mm 6 mps 757 mmHg 62%
19:00 +16°C° 0 mm 6 mps 757 mmHg 63%
20:00 +15°C° 0 mm 7 mps 757 mmHg 64%
21:00 +15°C° 0 mm 7 mps 757 mmHg 64%
22:00 +15°C° 0 mm 6 mps 757 mmHg 65%
23:00 +14°C° 0 mm 6 mps 757 mmHg 65%

Pasado mañana, 27 Octubre, Martes

Tiempo Temperatura Precipitaciones Viento Presión Humedad
00:00 +14°C° 0 mm 6 mps 757 mmHg 66%
01:00 +14°C° 0 mm 5 mps 757 mmHg 66%
02:00 +14°C° 0 mm 5 mps 757 mmHg 67%
03:00 +13°C° 0 mm 5 mps 757 mmHg 68%
04:00 +13°C° 0 mm 5 mps 758 mmHg 70%
05:00 +13°C° 0 mm 5 mps 758 mmHg 71%
06:00 +13°C° 0 mm 5 mps 758 mmHg 70%
07:00 +13°C° 0 mm 6 mps 758 mmHg 69%
08:00 +13°C° 0 mm 6 mps 758 mmHg 69%
09:00 +15°C° 0 mm 6 mps 758 mmHg 65%
10:00 +16°C° 0 mm 6 mps 758 mmHg 61%
11:00 +17°C° 0 mm 6 mps 759 mmHg 57%
12:00 +19°C° 0 mm 6 mps 758 mmHg 55%
13:00 +20°C° 0 mm 6 mps 758 mmHg 52%
14:00 +21°C° 0 mm 6 mps 758 mmHg 49%
15:00 +20°C° 0 mm 5 mps 758 mmHg 53%
16:00 +17°C° 0 mm 5 mps 758 mmHg 56%
17:00 +17°C° 0 mm 4 mps 758 mmHg 60%
18:00 +15°C° 0 mm 4 mps 759 mmHg 61%
19:00 +15°C° 0 mm 4 mps 759 mmHg 62%
20:00 +14°C° 0 mm 5 mps 759 mmHg 64%
21:00 +13°C° 0 mm 4 mps 759 mmHg 62%
22:00 +13°C° 0 mm 4 mps 759 mmHg 61%
23:00 +12°C° 0 mm 4 mps 759 mmHg 60%

28 Octubre, Miércoles

Tiempo Temperatura Precipitaciones Viento Presión Humedad
00:00 +12°C° 0 mm 4 mps 759 mmHg 62%
01:00 +12°C° 0 mm 4 mps 759 mmHg 64%
02:00 +11°C° 0 mm 4 mps 759 mmHg 66%
03:00 +11°C° 0 mm 4 mps 759 mmHg 66%
04:00 +11°C° 0 mm 4 mps 759 mmHg 67%
05:00 +9°C° 0 mm 5 mps 759 mmHg 68%
06:00 +10°C° 0 mm 5 mps 759 mmHg 67%
07:00 +10°C° 0 mm 6 mps 759 mmHg 65%
08:00 +10°C° 0 mm 6 mps 759 mmHg 64%
09:00 +11°C° 0 mm 6 mps 759 mmHg 62%
10:00 +13°C° 0 mm 6 mps 759 mmHg 59%
11:00 +15°C° 0 mm 6 mps 759 mmHg 56%
12:00 +15°C° 0 mm 6 mps 759 mmHg 56%
13:00 +15°C° 0 mm 6 mps 759 mmHg 55%
14:00 +16°C° 0 mm 5 mps 758 mmHg 55%
15:00 +15°C° 0 mm 5 mps 758 mmHg 59%
16:00 +14°C° 0 mm 4 mps 758 mmHg 63%
17:00 +13°C° 0 mm 4 mps 758 mmHg 67%
18:00 +12°C° 0 mm 4 mps 758 mmHg 70%
19:00 +12°C° 0 mm 3 mps 758 mmHg 73%
20:00 +11°C° 0 mm 3 mps 758 mmHg 76%
21:00 +11°C° 0 mm 3 mps 758 mmHg 78%
22:00 +11°C° 0 mm 3 mps 758 mmHg 80%
23:00 +10°C° 0 mm 3 mps 758 mmHg 82%

29 Octubre, Jueves

Tiempo Temperatura Precipitaciones Viento Presión Humedad
00:00 +10°C° 0 mm 3 mps 758 mmHg 84%
01:00 +10°C° 0 mm 3 mps 758 mmHg 86%
02:00 +9°C° 0 mm 3 mps 758 mmHg 88%
03:00 +9°C° 0 mm 3 mps 758 mmHg 88%
04:00 +8°C° 0 mm 4 mps 758 mmHg 88%
05:00 +8°C° 0 mm 4 mps 758 mmHg 87%
06:00 +10°C° 0 mm 4 mps 758 mmHg 83%
07:00 +10°C° 0 mm 4 mps 758 mmHg 79%
08:00 +10°C° 0 mm 4 mps 758 mmHg 74%
09:00 +12°C° 0 mm 4 mps 758 mmHg 69%
10:00 +13°C° 0 mm 4 mps 758 mmHg 64%
11:00 +14°C° 0 mm 4 mps 758 mmHg 59%
12:00 +16°C° 0 mm 3 mps 758 mmHg 57%
13:00 +16°C° 0 mm 3 mps 758 mmHg 56%
14:00 +16°C° 0 mm 3 mps 758 mmHg 54%
15:00 +14°C° 0 mm 3 mps 758 mmHg 59%
16:00 +13°C° 0 mm 3 mps 758 mmHg 63%
17:00 +12°C° 0 mm 3 mps 758 mmHg 67%
18:00 +12°C° 0 mm 3 mps 758 mmHg 68%
19:00 +11°C° 0 mm 3 mps 758 mmHg 69%
20:00 +12°C° 0 mm 2 mps 759 mmHg 70%
21:00 +12°C° 0 mm 2 mps 759 mmHg 70%
22:00 +12°C° 0 mm 1 mps 759 mmHg 70%
23:00 +12°C° 0 mm 1 mps 759 mmHg 70%

30 Octubre, Viernes

Tiempo Temperatura Precipitaciones Viento Presión Humedad
00:00 +12°C° 0.1 mm 1 mps 759 mmHg 69%
01:00 +12°C° 0.1 mm 2 mps 759 mmHg 68%
02:00 +12°C° 0.1 mm 2 mps 759 mmHg 67%
03:00 +12°C° 0 mm 2 mps 759 mmHg 67%
04:00 +12°C° 0 mm 2 mps 759 mmHg 67%
05:00 +12°C° 0 mm 2 mps 759 mmHg 67%
06:00 +11°C° 0 mm 3 mps 760 mmHg 66%
07:00 +11°C° 0 mm 3 mps 760 mmHg 65%
08:00 +11°C° 0 mm 3 mps 760 mmHg 65%
09:00 +12°C° 0 mm 3 mps 760 mmHg 62%
10:00 +13°C° 0 mm 3 mps 760 mmHg 59%
11:00 +13°C° 0 mm 3 mps 760 mmHg 57%
12:00 +14°C° 0 mm 3 mps 760 mmHg 54%
13:00 +16°C° 0 mm 3 mps 760 mmHg 51%
14:00 +17°C° 0 mm 4 mps 760 mmHg 48%
15:00 +16°C° 0 mm 3 mps 760 mmHg 52%
16:00 +14°C° 0 mm 3 mps 761 mmHg 56%
17:00 +14°C° 0 mm 2 mps 761 mmHg 60%
18:00 +13°C° 0 mm 2 mps 761 mmHg 63%
19:00 +12°C° 0 mm 2 mps 761 mmHg 66%
20:00 +12°C° 0 mm 2 mps 762 mmHg 68%
21:00 +10°C° 0 mm 2 mps 762 mmHg 70%
22:00 +10°C° 0 mm 2 mps 762 mmHg 71%
23:00 +9°C° 0 mm 2 mps 762 mmHg 72%
Mostrar más

Necesitamos Su Consentimiento

Meteoprog y nuestros Proveedores de Servicios pueden almacenar y acceder a sus datos personales como cookies, identificadores de dispositivo u otras tecnologías similares de su dispositivo y procesar dichos datos para personalizar contenido y anuncios, además de ofrecer funciones de redes sociales y analizar el tráfico.

  • Almacenar y/o acceder a información en su dispositivo

    Se puede almacenar o acceder a cookies, identificadores de dispositivo u otra información de su dispositivo para los fines anteriormente indicados.

  • Anuncios y contenido personalizados, medición de anuncios y contenido, percepciones del público, y desarrollo de productos

    Los anuncios y el contenido pueden personalizarse en base a su perfil. Se pueden añadir más datos para personalizar mejor los anuncios y contenidos. Se puede medir el rendimiento de los anuncios y contenidos. Se puede obtener la percepción sobre el público que ha visto los anuncios y contenidos. Dichos datos pueden usarse para desarrollar o mejorar la experiencia del usuario, sistemas y software.

Al hacer clic en ‘Estoy De Acuerdo’ usted permitirá el uso de las cookies, identificadores de dispositivo, balizas web u otras tecnologías similares indicadas. Su configuración puede cambiarse desde el navegador de su dispositivo.

Para ciertos fines, los intereses legítimos pueden ser considerados por encima del consentimiento. Puede leer más sobre ello en nuestra Política de Privacidad y Cookies.